Temp
-14 -14 -14 -14 -13 -13 -13 -13 -13 -13 -13 -13 -13 -13 -13 -13 -13 -13 -13 -12 -12 -12 -12 -12 -12 -12 -12 -12 -12 -12 -12 -12 -12 -13 -13 -13 -13 -13 -13 -13 -13 -13
-15 -15 -15 -14 -14 -14 -14 -14 -14 -14 -13 -13 -13 -13 -13 -13 -13 -13 -13 -13 -13 -12 -12 -12 -13 -13 -13 -13 -13 -13 -13 -13 -13 -13 -13 -13 -13 -13 -13 -13 -13 -13
-15 -15 -15 -15 -15 -15 -15 -15 -14 -14 -14 -14 -14 -14 -13 -13 -13 -13 -13 -13 -13 -13 -13 -13 -13 -13 -13 -13 -13 -13 -13 -13 -13 -13 -13 -13 -13 -13 -13 -13 -13 -13
-15 -15 -15 -15 -15 -15 -15 -15 -15 -15 -15 -15 -14 -14 -14 -14 -14 -14 -14 -14 -14 -13 -13 -13 -13 -13 -13 -13 -13 -13 -13 -13 -13 -13 -13 -13 -14 -14 -13 -13 -13 -13
-16 -16 -15 -15 -15 -15 -15 -15 -15 -15 -15 -15 -15 -15 -15 -15 -15 -14 -14 -14 -14 -14 -14 -14 -14 -14 -14 -14 -14 -14 -14 -14 -14 -14 -14 -14 -14 -14 -14 -14 -14 -14
-16 -16 -16 -16 -16 -16 -16 -15 -15 -15 -15 -15 -15 -15 -15 -15 -15 -15 -15 -15 -15 -15 -15 -15 -15 -15 -15 -14 -14 -14 -14 -14 -14 -14 -14 -14 -14 -14 -14 -14 -14 -14
-16 -16 -16 -16 -16 -15 -15 -16 -16 -16 -16 -16 -16 -16 -15 -15 -15 -15 -15 -15 -15 -15 -15 -15 -15 -15 -15 -15 -15 -15 -15 -15 -15 -15 -15 -15 -15 -15 -15 -15 -15 -15
-17 -17 -17 -16 -16 -16 -16 -16 -16 -16 -16 -16 -16 -16 -16 -16 -16 -16 -16 -15 -15 -15 -15 -15 -15 -15 -15 -15 -15 -15 -15 -15 -15 -15 -16 -16 -16 -16 -16 -16 -15 -15
-18 -18 -18 -18 -17 -17 -17 -17 -17 -17 -16 -16 -16 -16 -16 -16 -16 -16 -16 -16 -16 -16 -16 -16 -16 -16 -16 -16 -16 -16 -16 -15 -15 -15 -16 -16 -16 -16 -16 -16 -16 -16
-18 -18 -18 -18 -18 -18 -18 -18 -18 -18 -18 -17 -17 -17 -17 -17 -17 -16 -16 -16 -16 -16 -16 -16 -16 -16 -17 -17 -16 -16 -16 -16 -16 -16 -16 -16 -16 -16 -16 -16 -16 -16
-19 -19 -19 -19 -19 -19 -19 -19 -19 -19 -19 -18 -18 -18 -18 -18 -18 -18 -18 -17 -17 -17 -17 -17 -17 -17 -17 -17 -17 -17 -17 -17 -17 -17 -17 -17 -17 -17 -16 -16 -16 -17
-20 -20 -20 -19 -19 -19 -19 -19 -19 -19 -19 -19 -19 -19 -19 -19 -19 -19 -19 -19 -19 -18 -18 -18 -18 -18 -18 -18 -18 -18 -18 -18 -18 -17 -17 -18 -18 -18 -18 -17 -17 -17
-20 -20 -20 -20 -20 -20 -20 -20 -20 -20 -20 -20 -20 -20 -19 -19 -19 -19 -19 -19 -19 -19 -19 -19 -19 -19 -19 -19 -19 -19 -19 -19 -19 -18 -18 -18 -18 -18 -19 -19 -19 -18
-20 -20 -20 -20 -20 -20 -20 -20 -20 -20 -20 -20 -20 -20 -20 -20 -20 -20 -20 -20 -20 -20 -20 -20 -19 -19 -19 -19 -19 -19 -19 -19 -19 -19 -19 -19 -19 -19 -19 -19 -19 -19
-21 -21 -21 -21 -21 -21 -21 -21 -21 -21 -21 -21 -21 -20 -20 -20 -20 -20 -20 -20 -20 -20 -20 -20 -20 -20 -20 -20 -20 -20 -20 -19 -19 -19 -19 -19 -19 -19 -19 -19 -19 -20
-22 -22 -22 -22 -22 -22 -22 -22 -22 -22 -22 -22 -22 -22 -22 -21 -21 -21 -21 -21 -21 -21 -21 -21 -21 -21 -21 -20 -20 -20 -20 -20 -20 -20 -19 -19 -19 -19 -19 -20 -20 -20
-23 -23 -23 -23 -23 -23 -23 -23 -23 -23 -23 -23 -22 -22 -22 -22 -22 -22 -22 -22 -22 -22 -22 -22 -22 -22 -22 -22 -21 -21 -21 -21 -21 -20 -20 -20 -20 -20 -20 -20 -20 -20
-23 -23 -23 -23 -23 -23 -23 -23 -23 -23 -23 -23 -23 -23 -23 -23 -23 -23 -23 -23 -22 -22 -22 -22 -22 -22 -22 -22 -22 -22 -22 -22 -22 -21 -21 -21 -21 -21 -21 -20 -20 -20
-23 -23 -23 -23 -23 -23 -23 -23 -23 -23 -23 -23 -23 -23 -23 -23 -23 -23 -23 -23 -23 -23 -23 -23 -23 -23 -23 -23 -23 -23 -23 -23 -23 -22 -22 -22 -22 -22 -22 -21 -21 -21
-23 -23 -24 -24 -24 -24 -24 -24 -23 -23 -23 -23 -23 -23 -23 -23 -23 -23 -23 -23 -23 -23 -23 -23 -23 -23 -23 -23 -23 -23 -23 -23 -23 -23 -23 -23 -22 -22 -22 -22 -22 -22
-24 -24 -24 -24 -24 -24 -24 -24 -24 -24 -24 -24 -24 -24 -24 -24 -24 -24 -23 -23 -23 -23 -23 -23 -23 -23 -23 -23 -23 -23 -23 -23 -23 -23 -23 -23 -23 -23 -22 -22 -22 -22
-25 -25 -25 -25 -25 -25 -25 -25 -25 -25 -25 -25 -25 -24 -24 -24 -24 -24 -24 -24 -24 -24 -24 -23 -23 -23 -23 -23 -23 -23 -23 -23 -23 -23 -23 -22 -22 -22 -22 -22 -22 -22
-25 -25 -25 -25 -26 -26 -26 -26 -26 -25 -25 -25 -25 -25 -25 -25 -25 -25 -25 -24 -24 -24 -24 -24 -24 -24 -24 -24 -24 -23 -23 -23 -23 -23 -23 -23 -23 -23 -22 -22 -22 -22
-26 -26 -26 -26 -26 -26 -26 -26 -26 -26 -26 -26 -26 -26 -26 -26 -25 -25 -25 -25 -25 -25 -25 -24 -24 -24 -24 -24 -24 -24 -24 -24 -23 -23 -23 -23 -23 -23 -23 -23 -23 -23
-27 -27 -27 -27 -27 -27 -27 -27 -27 -27 -27 -27 -26 -26 -26 -26 -26 -26 -26 -25 -25 -25 -25 -25 -25 -25 -24 -24 -24 -24 -24 -24 -24 -24 -23 -23 -23 -23 -23 -23 -23 -23
-27 -27 -27 -27 -27 -27 -27 -27 -27 -27 -27 -27 -27 -27 -27 -27 -26 -26 -26 -26 -26 -26 -25 -25 -25 -25 -25 -25 -25 -25 -24 -24 -24 -24 -24 -24 -24 -23 -23 -23 -23 -23
Height
5717 5717 5717 5717 5717 5717 5717 5717 5716 5716 5716 5716 5715 5715 5715 5715 5714 5714 5714 5713 5713 5712 5712 5711 5710 5710 5710 5710 5709 5709 5708 5707 5707 5706 5706 5707 5707 5707 5707 5707 5707 5706
5709 5709 5709 5708 5708 5708 5708 5707 5707 5707 5707 5706 5706 5706 5705 5705 5705 5705 5704 5704 5703 5702 5701 5701 5700 5700 5700 5700 5700 5700 5699 5699 5698 5697 5697 5698 5697 5697 5697 5697 5697 5697
5702 5701 5701 5700 5700 5699 5699 5699 5698 5698 5697 5697 5696 5696 5695 5695 5694 5694 5694 5693 5693 5692 5691 5690 5690 5689 5689 5689 5689 5689 5689 5689 5688 5688 5688 5688 5687 5687 5687 5687 5687 5687
5694 5693 5692 5692 5691 5690 5690 5690 5689 5688 5688 5687 5686 5686 5686 5685 5684 5683 5683 5682 5682 5681 5681 5680 5679 5679 5679 5678 5678 5678 5678 5678 5677 5678 5678 5678 5677 5676 5677 5676 5676 5676
5685 5684 5683 5683 5682 5681 5681 5680 5679 5679 5678 5678 5677 5676 5676 5675 5674 5673 5672 5672 5671 5670 5670 5669 5668 5668 5668 5667 5667 5667 5667 5667 5666 5666 5667 5668 5667 5666 5666 5666 5665 5666
5677 5676 5675 5673 5672 5672 5671 5670 5669 5669 5668 5667 5666 5666 5665 5665 5664 5663 5662 5662 5661 5660 5659 5658 5657 5656 5656 5656 5656 5655 5655 5656 5655 5655 5655 5656 5656 5655 5654 5654 5655 5655
5668 5667 5666 5665 5663 5662 5661 5660 5659 5658 5657 5657 5656 5654 5654 5653 5652 5652 5651 5650 5650 5649 5648 5647 5646 5645 5644 5644 5644 5644 5643 5644 5644 5645 5644 5643 5643 5644 5643 5642 5643 5644
5658 5657 5656 5655 5654 5653 5651 5650 5649 5647 5646 5646 5645 5644 5643 5642 5641 5640 5639 5638 5637 5637 5636 5635 5634 5633 5632 5632 5631 5631 5631 5631 5632 5633 5632 5631 5632 5632 5631 5630 5631 5631
5648 5646 5645 5644 5643 5642 5640 5639 5638 5637 5635 5634 5633 5632 5631 5630 5629 5629 5628 5627 5626 5624 5623 5622 5621 5620 5619 5618 5618 5618 5618 5618 5619 5619 5619 5619 5620 5620 5619 5619 5619 5619
5638 5636 5634 5633 5631 5630 5628 5627 5626 5625 5624 5622 5622 5621 5619 5618 5617 5616 5615 5614 5613 5612 5611 5610 5608 5607 5606 5605 5604 5603 5604 5604 5605 5605 5605 5606 5606 5606 5606 5606 5606 5607
5627 5625 5624 5622 5620 5619 5617 5615 5614 5612 5611 5610 5608 5608 5607 5605 5604 5603 5602 5601 5600 5599 5598 5597 5596 5595 5594 5592 5591 5590 5590 5590 5590 5591 5591 5591 5591 5591 5592 5592 5592 5593
5616 5614 5612 5610 5609 5607 5605 5604 5602 5600 5599 5597 5595 5594 5593 5592 5591 5590 5589 5588 5586 5585 5584 5583 5582 5581 5580 5579 5578 5578 5577 5577 5577 5577 5577 5577 5577 5577 5576 5576 5577 5577
5604 5602 5600 5598 5596 5594 5593 5591 5589 5588 5586 5584 5583 5581 5580 5579 5578 5577 5576 5574 5573 5571 5570 5569 5569 5567 5566 5564 5564 5564 5564 5564 5564 5564 5564 5564 5564 5564 5563 5563 5562 5562
5591 5589 5587 5584 5582 5580 5578 5577 5575 5573 5572 5570 5569 5567 5566 5565 5564 5563 5562 5560 5559 5558 5556 5555 5554 5553 5551 5550 5549 5549 5549 5549 5549 5550 5550 5550 5551 5551 5550 5550 5549 5549
5578 5576 5573 5571 5569 5567 5565 5562 5560 5559 5557 5555 5554 5552 5551 5550 5548 5547 5546 5545 5544 5543 5542 5540 5539 5538 5536 5534 5533 5533 5533 5533 5534 5534 5534 5535 5536 5536 5536 5535 5535 5535
5566 5564 5561 5559 5556 5554 5552 5550 5547 5545 5543 5541 5539 5537 5536 5534 5533 5531 5530 5529 5528 5527 5526 5525 5524 5522 5520 5518 5516 5516 5516 5516 5517 5518 5518 5519 5520 5521 5521 5520 5519 5519
5555 5552 5549 5546 5544 5542 5539 5537 5535 5532 5530 5528 5526 5524 5522 5520 5518 5516 5515 5513 5512 5511 5510 5509 5508 5506 5504 5502 5501 5500 5499 5498 5499 5501 5501 5501 5502 5504 5505 5505 5504 5503
5542 5539 5536 5533 5531 5528 5526 5523 5521 5518 5516 5514 5513 5511 5508 5506 5504 5502 5501 5499 5497 5496 5496 5494 5492 5490 5487 5485 5486 5485 5483 5481 5482 5484 5484 5484 5484 5486 5487 5488 5488 5488
5529 5526 5523 5520 5517 5514 5511 5509 5506 5503 5501 5499 5498 5496 5493 5492 5490 5488 5486 5484 5482 5481 5481 5480 5478 5475 5471 5470 5470 5469 5467 5465 5465 5467 5468 5467 5467 5469 5470 5470 5471 5472
5516 5513 5509 5505 5502 5499 5497 5494 5491 5488 5485 5483 5482 5480 5478 5476 5474 5473 5471 5468 5466 5465 5465 5465 5463 5459 5455 5455 5454 5453 5451 5448 5448 5451 5452 5451 5450 5451 5452 5453 5454 5455
5501 5498 5494 5491 5488 5484 5481 5478 5475 5472 5469 5467 5465 5463 5461 5459 5458 5456 5455 5453 5450 5448 5448 5449 5447 5442 5439 5438 5438 5437 5434 5432 5433 5435 5435 5433 5434 5434 5434 5436 5437 5437
5487 5483 5480 5476 5472 5469 5466 5462 5459 5456 5453 5450 5449 5447 5444 5442 5441 5439 5437 5436 5434 5431 5430 5431 5431 5427 5422 5421 5421 5419 5416 5415 5418 5418 5415 5415 5417 5417 5418 5420 5420 5420
5472 5468 5464 5460 5456 5453 5450 5446 5443 5439 5436 5433 5431 5430 5427 5425 5423 5422 5420 5418 5416 5414 5412 5412 5413 5411 5405 5403 5403 5401 5397 5397 5399 5398 5396 5398 5399 5399 5401 5402 5403 5402
5458 5453 5449 5445 5441 5436 5433 5429 5426 5422 5419 5416 5413 5411 5410 5407 5405 5405 5404 5400 5398 5397 5395 5393 5394 5394 5389 5385 5384 5383 5380 5377 5377 5378 5379 5379 5379 5381 5382 5383 5383 5384
5443 5438 5433 5429 5425 5421 5416 5412 5409 5405 5402 5398 5395 5392 5391 5389 5386 5386 5386 5383 5380 5378 5377 5374 5374 5375 5372 5367 5365 5365 5361 5357 5356 5359 5360 5360 5359 5361 5363 5363 5362 5364
5427 5422 5418 5413 5408 5405 5401 5396 5392 5388 5385 5381 5378 5374 5372 5370 5368 5366 5366 5365 5362 5359 5357 5355 5353 5354 5354 5349 5346 5345 5341 5336 5336 5339 5339 5338 5339 5341 5342 5342 5343 5343
Wind_Speed
63 64 66 68 69 70 70 70 71 71 72 72 72 72 72 73 73 74 74 76 77 76 75 74 73 73 74 75 77 78 79 80 80 78 77 75 75 76 77 78 78 79
60 61 62 63 64 66 67 68 69 70 72 73 74 74 74 74 75 75 76 77 79 80 81 79 78 76 75 75 76 76 77 78 78 78 77 77 78 79 79 80 81 81
61 61 62 62 63 64 64 66 67 67 69 70 72 73 74 75 75 75 76 77 79 80 82 83 83 81 80 78 77 77 78 78 78 78 79 80 81 82 82 83 84 84
65 66 66 67 67 67 67 68 68 69 69 70 71 72 73 74 75 75 76 76 77 78 80 81 83 83 83 82 81 81 80 80 80 80 80 82 83 84 85 86 86 87
69 69 70 71 71 72 72 72 72 73 73 73 74 74 75 76 76 77 77 77 78 78 78 79 80 82 82 82 82 82 82 81 81 82 82 82 83 84 85 86 87 88
73 74 74 75 75 76 76 76 77 77 77 77 77 78 78 78 79 79 79 79 80 80 80 80 80 81 82 82 82 82 82 81 81 81 81 82 82 83 84 85 86 86
79 79 80 80 81 81 81 81 81 81 82 82 82 82 82 82 82 82 83 83 83 83 83 83 83 83 83 83 83 83 83 83 83 83 83 83 83 83 83 85 86 87
82 82 83 83 84 85 85 86 86 87 87 86 86 86 86 86 86 87 87 87 87 87 87 87 87 88 88 87 87 87 87 86 86 86 86 86 86 85 85 85 86 87
81 81 82 83 83 84 85 86 87 88 89 90 90 90 90 91 91 91 91 91 91 91 92 92 92 92 92 92 92 92 92 91 91 91 90 90 89 89 88 88 88 88
81 81 82 83 84 84 85 86 87 87 88 89 90 91 91 92 93 93 94 94 94 94 94 95 95 95 95 95 96 96 96 96 95 95 95 95 94 94 93 92 91 91
81 82 83 84 84 85 85 86 87 87 88 89 89 90 90 91 91 92 93 94 95 96 96 96 96 96 97 97 97 97 98 98 98 98 97 97 97 97 97 97 96 95
82 83 84 85 85 86 87 87 88 88 89 90 90 91 91 92 92 92 93 93 94 95 96 96 97 97 97 97 97 97 98 98 99 100 99 99 98 98 98 99 99 99
85 86 86 87 88 88 89 90 90 91 91 92 92 93 93 93 94 94 94 95 95 96 96 97 97 98 98 99 99 99 98 98 98 99 99 100 100 99 99 98 98 99
86 87 88 88 89 90 91 92 92 93 93 94 95 95 96 96 96 97 97 97 97 98 98 98 99 99 100 100 100 101 101 100 100 100 100 100 100 100 100 99 99 99
84 85 85 86 87 88 89 90 91 92 93 94 94 95 96 97 97 98 98 99 99 99 100 100 100 101 101 102 103 103 103 103 103 103 103 103 102 102 101 101 101 101
83 84 85 86 86 87 87 88 89 90 90 91 92 93 94 95 96 96 97 98 98 99 99 99 99 100 101 102 103 103 104 105 105 105 105 105 105 105 104 104 104 104
86 87 87 88 89 89 89 90 90 91 91 92 92 93 93 94 95 95 96 96 97 97 98 98 98 98 99 100 100 101 102 104 104 104 105 105 106 106 106 106 106 106
89 89 90 91 91 92 92 93 93 94 94 94 95 95 96 96 97 97 97 97 98 98 98 98 99 99 100 100 100 100 101 102 103 103 103 104 105 105 105 105 105 105
89 90 91 91 92 93 93 94 94 95 96 96 96 97 98 98 99 99 100 100 101 101 101 101 101 102 102 103 102 102 103 103 103 103 103 104 104 104 104 104 104 104
90 90 91 92 92 93 93 94 95 95 96 97 97 98 98 99 99 100 100 101 102 103 103 103 104 105 105 106 106 106 106 107 107 106 105 106 106 106 105 105 104 104
90 91 91 92 93 93 94 95 95 96 97 98 98 98 99 100 100 100 101 102 102 103 104 104 104 106 107 108 108 109 109 110 110 109 109 109 109 109 109 108 107 107
91 92 92 93 94 94 95 95 96 97 97 98 98 99 100 101 101 102 102 103 104 104 105 105 105 106 108 109 109 110 111 112 112 112 113 113 113 112 112 112 111 111
93 93 94 94 95 95 96 96 97 98 98 99 99 100 100 101 102 102 103 104 105 105 106 107 107 108 109 110 111 112 113 113 113 114 115 115 115 115 115 114 114 114
95 95 96 96 97 97 98 98 99 99 100 100 101 101 102 102 103 103 104 105 105 106 107 108 108 109 110 111 112 113 114 115 116 117 117 117 117 117 117 117 117 117
97 98 98 98 99 99 99 100 100 100 101 101 102 103 103 104 104 105 105 105 106 107 108 109 109 110 111 112 113 114 115 117 118 119 118 119 119 119 119 119 119 119
99 99 100 100 100 100 100 100 101 101 101 102 103 103 104 104 105 105 105 105 106 107 108 108 109 109 110 111 112 113 114 116 118 118 119 120 120 120 120 121 121 121
Wind_Direction
265 264 264 264 264 264 263 263 262 261 261 262 262 262 263 262 262 261 261 261 260 259 258 258 258 257 257 257 257 258 260 261 262 264 265 267 270 272 273 274 273 273
266 266 266 265 265 265 265 265 264 264 263 263 262 263 263 263 262 261 261 260 260 261 261 262 262 262 262 262 262 263 263 264 265 267 269 271 272 272 273 273 273 273
268 268 267 267 267 267 266 266 266 266 265 264 264 264 264 264 263 263 262 261 261 261 262 262 263 264 264 264 263 263 264 264 265 267 269 270 271 272 272 273 273 273
271 271 270 270 269 269 268 268 267 267 266 266 266 265 265 265 265 265 265 264 263 262 262 262 262 263 263 263 263 263 263 264 264 265 266 267 268 269 270 271 271 272
274 273 273 272 272 271 271 270 269 269 268 267 266 266 266 266 266 266 266 266 266 265 264 264 263 263 263 263 263 263 263 263 263 264 264 264 265 266 267 268 269 270
275 275 275 275 274 274 273 273 272 272 271 270 269 269 268 267 266 266 266 266 266 267 267 267 266 266 266 265 265 265 265 265 264 264 264 264 264 264 264 265 266 267
276 276 275 275 275 275 274 274 274 273 273 273 272 272 271 271 270 269 268 267 267 267 267 267 267 267 267 267 267 267 267 266 266 266 266 266 265 265 265 265 265 265
276 276 275 274 274 273 273 273 273 273 273 272 272 272 272 272 272 271 271 271 271 270 270 269 269 269 269 269 269 268 268 267 267 267 267 267 267 267 267 266 266 266
275 275 275 274 274 274 273 273 273 273 273 273 272 272 272 272 271 271 271 271 272 272 272 272 272 272 271 271 271 271 270 270 269 269 268 268 268 268 267 267 267 267
275 275 275 275 275 275 274 274 274 273 273 273 272 272 272 272 272 272 271 271 271 271 271 272 272 273 273 273 273 273 272 272 271 271 270 270 269 269 268 268 268 267
276 276 275 275 275 275 275 275 275 274 274 274 273 273 273 272 272 272 272 272 272 271 271 271 271 271 271 272 272 272 273 273 273 272 272 272 271 271 270 269 269 268
277 277 277 276 276 276 275 275 275 275 275 274 274 274 274 273 273 273 273 272 272 272 272 271 271 271 271 270 270 270 271 271 271 271 271 272 272 272 272 271 271 270
278 278 277 277 277 276 276 275 275 275 274 274 274 274 273 273 273 273 273 273 272 272 272 272 271 271 271 271 270 270 270 270 269 269 269 269 270 271 271 272 272 271
280 279 279 279 278 278 277 277 276 276 275 275 274 274 274 273 273 272 272 272 272 272 272 272 272 271 271 271 270 270 270 270 270 269 269 269 269 269 269 269 270 270
282 281 281 281 280 280 279 279 278 278 277 277 276 276 275 275 274 274 273 273 272 272 272 272 272 272 272 271 271 271 270 270 269 269 269 269 269 269 269 268 268 268
282 282 281 281 280 280 279 279 279 278 278 278 277 277 277 276 276 276 275 275 274 274 273 273 272 272 272 272 271 271 271 270 270 269 269 268 268 268 268 268 268 268
281 281 280 280 279 279 278 278 277 277 277 276 276 276 276 276 276 276 275 275 275 275 274 274 274 273 273 272 272 271 271 271 270 270 270 269 269 268 267 267 267 268
281 281 281 280 280 279 279 278 278 277 276 276 275 275 275 274 274 274 274 274 274 274 274 274 274 273 273 273 272 272 272 272 271 271 270 270 269 269 268 268 268 267
282 282 281 281 280 280 279 279 278 278 277 276 276 275 275 274 274 274 273 273 273 272 272 272 272 272 272 272 272 272 272 272 272 271 271 271 270 270 269 269 269 268
283 283 282 282 281 281 280 279 279 278 278 277 276 276 275 275 274 274 274 273 273 272 272 272 272 272 272 271 271 271 271 271 271 271 271 271 271 271 270 270 270 269
285 285 284 283 283 282 281 281 280 279 278 278 277 276 276 275 275 274 274 274 273 273 272 272 272 272 272 271 271 271 271 270 271 271 271 270 270 270 270 270 270 270
287 287 286 285 284 283 283 282 281 280 280 279 278 277 277 276 275 275 274 274 273 273 273 272 272 272 272 272 271 271 271 270 270 270 270 269 269 269 269 270 270 270
289 289 288 287 286 285 284 284 283 282 281 280 279 278 278 277 276 276 275 275 274 274 273 273 272 272 272 272 272 271 271 271 270 270 269 269 269 269 269 269 268 268
291 291 290 289 288 287 286 285 284 284 283 282 281 280 279 278 277 277 276 275 275 274 274 273 273 272 272 272 272 272 272 271 271 270 270 270 270 269 269 269 268 268
293 292 291 290 289 288 288 287 286 285 284 284 283 282 281 280 279 278 277 277 276 276 275 274 274 273 273 273 272 272 272 271 271 271 270 270 270 269 269 269 269 268
294 294 293 292 291 290 289 289 288 287 286 285 285 284 283 282 281 280 279 279 278 277 277 276 275 275 274 274 273 273 272 272 271 271 270 270 270 269 269 269 268 268